{"data":{"norad_id":53446,"epoch":"2026-09-20T22:58:08.827968Z","epoch_age_seconds":104090,"freshness":"FRESH","line1":"1 53446U 22098C   26263.95704662  .00150931  00000+0  61258-3 0  9994","line2":"2 53446  97.5729  42.9350 0001715 276.8853  83.2222 15.85844562229728","mean_motion":15.85844562,"eccentricity":0.0001715,"inclination_deg":97.5729,"raan_deg":42.935,"arg_perigee_deg":276.8853,"mean_anomaly_deg":83.2222,"bstar":0.00061258,"rev_number":22972,"period_min":90.803350751093,"perigee_km":312.80001843995,"apogee_km":315.09540349581,"semimajor_km":6692.0847109679,"source":"CELESTRAK","updated_at":"2026-09-21T09:00:09.037802Z"}}